Satellite: RS-38
Catalog number: 35869
Epoch time: 10067.69600013
Element set: 0149
Inclination: 098.7707 deg
RA of node: 122.1797 deg
Eccentricity: 0.0004064
Arg of perigee: 304.1186 deg
Mean anomaly: 055.9563 deg
Mean motion: 14.21976712 rev/day
Decay rate: 1.76e-06 rev/day^2
Epoch rev: 02444
Checksum: 310
/EX
More information about the Keps
mailing list